Regional Weather Roundup
Issued by NWS

Home | Current Version | Previous Version | Graphics & Text | Print | Product List | Glossary On
Versions: 1 2 3 4 5 6 7 8 9 10 11 12 13 14 15 16 17 18 19 20 21 22 23 24 25 26 27 28 29 30 31 32 33 34 35 36 37 38 39 40 41 42 43 44 45 46 47 48 49 50
000
ASUS44 KMEG 060310
RWRTN
TENNESSEE HOURLY STATE WEATHER ROUNDUP
NATIONAL WEATHER SERVICE MEMPHIS TN
1000 PM CDT THU MAY 05 2016

TNZ002-004-019-021-049-052-054-088>092-060400-
WEST TENNESSEE

CITY           SKY/WX    TMP DP  RH WIND       PRES   REMARKS
MEMPHIS INTL   CLEAR     61  43  51 NE13      30.00R
NWS MEMPHIS      N/A     59 N/A N/A MISG        N/A
JACKSON        CLEAR     52  43  71 NE5       30.01R
DYERSBURG      CLEAR     54  43  66 N5        30.02R
UNION CITY     CLEAR     52  45  76 CALM      30.01S
LEXINGTON      CLEAR     46  43  87 CALM      30.00R
$$

TNZ008-025-027-028-033-062-065-066-060400-
NORTH MIDDLE TENNESSEE

CITY           SKY/WX    TMP DP  RH WIND       PRES   REMARKS
NASHVILLE      PTCLDY    53  43  68 NW6       29.98R
CLARKSVILLE    CLEAR     50  43  77 W6        29.99R
SMYRNA         PTCLDY    52  44  74 NW8       29.98R
COOKEVILLE     MOCLDY    50  45  81 NW3       29.94R
CROSSVILLE     MOCLDY    45  39  79 NW6       29.93R
$$

TNZ061-075-076-078-094-096-097-060400-
SOUTH MIDDLE TENNESSEE

CITY           SKY/WX    TMP DP  RH WIND       PRES   REMARKS
TULLAHOMA      PTCLDY    48  43  81 N8        29.96R
WINCHESTER     MOCLDY    50  43  76 N3        29.96R
MCMINNVILLE    MOCLDY    50  43  76 N6        29.95R
COLUMBIA       CLOUDY    54  48  82 N3        29.97S
SHELBYVILLE    CLEAR     52  45  76 N8        29.98R
$$

TNZ017-018-042-046-047-060400-
NORTHEAST TENNESSEE

CITY           SKY/WX    TMP DP  RH WIND       PRES   REMARKS
TRI CITIES     CLOUDY    47  43  86 W7        29.83S
$$

TNZ012-013-036-069-073-074-060400-
CENTRAL EAST TENNESSEE

CITY           SKY/WX    TMP DP  RH WIND       PRES   REMARKS
KNOXVILLE      MOCLDY    49  39  68 CALM      29.90R
OAK RIDGE      CLEAR     49  39  68 CALM      29.91F
GATLINBURG     CLOUDY    48  39  71 SW3       29.89S
MORRISTOWN     CLOUDY    50  41  71 W5        29.87S
$$

TNZ083-085-099-060400-
SOUTHEAST TENNESSEE

CITY           SKY/WX    TMP DP  RH WIND       PRES   REMARKS
CHATTANOOGA    PTCLDY    51  41  68 N5        29.94R
$$

SKY/WX REPORTED AS FAIR MEANS FEW OR NO CLOUDS BELOW
12 THOUSAND FEET.





USA.gov is the U.S. government's official web portal to all federal, state and local government web resources and services.